Powrót do katalogu

ONEWEB-0622

AktywnyŁącznośćPO
NORAD 55163·PAYLOAD·🇬🇧 United Kingdom

Wystrzelony Jan 10, 2023 z Cape Canaveral Space Force Station

Loading…

Następne Przeloty (najbliższe 24 godziny)

TLE

ŚwieżeSource: CelesTrak SupGP

Epoka: Sep 14, 2026, 21:41 UTC

1 55163C 23004Z   26257.90398565 -.00001021  00000+0 -28853-2 0  2576
2 55163  87.8973   3.2350 0001703 130.9137 269.4931 13.11421166    13

Śledź ONEWEB-0622 w czasie rzeczywistym z AllMySat

Download on the App Store